When you browse on this site, cookies collect data to enhance your experience and personalize the content and advertising you see.
Visit our Privacy Policy to learn more. By continuing to use the site, you agree to this use of cookies and data.
  • în România
  • Lista ţărilor
  • Pe 7 zile
  • Temperatura apei
  • Meteo pe hartă
  • Widget-uri
  • user-avatar
    Intrare

    Meteo pe oră la Mamou

    Astăzi, 24 August, Sâmbătă

    Timp Temperatura Precipitaţii Vânt Presiune Umiditate
    00:00 +25°C° 0.2 mm 2 m/s 736 mmHg 91%
    01:00 +25°C° 0.2 mm 2 m/s 736 mmHg 92%
    02:00 +25°C° 0 mm 2 m/s 735 mmHg 92%
    03:00 +25°C° 0 mm 2 m/s 735 mmHg 92%
    04:00 +24°C° 0 mm 1 m/s 735 mmHg 93%
    05:00 +24°C° 0 mm 2 m/s 735 mmHg 93%
    06:00 +24°C° 0 mm 2 m/s 736 mmHg 93%
    07:00 +24°C° 0 mm 2 m/s 736 mmHg 93%
    08:00 +25°C° 0 mm 2 m/s 736 mmHg 89%
    09:00 +26°C° 0 mm 3 m/s 737 mmHg 86%
    10:00 +26°C° 0 mm 3 m/s 737 mmHg 83%
    11:00 +26°C° 0.1 mm 3 m/s 737 mmHg 82%
    12:00 +27°C° 0.1 mm 2 m/s 736 mmHg 82%
    13:00 +27°C° 0.1 mm 2 m/s 736 mmHg 81%
    14:00 +27°C° 0.6 mm 2 m/s 735 mmHg 80%
    15:00 +27°C° 0.6 mm 2 m/s 735 mmHg 80%
    16:00 +28°C° 0.6 mm 2 m/s 734 mmHg 79%
    17:00 +27°C° 0.1 mm 2 m/s 734 mmHg 82%
    18:00 +26°C° 0.1 mm 1 m/s 734 mmHg 85%
    19:00 +25°C° 0.1 mm 1 m/s 734 mmHg 89%
    20:00 +25°C° 0 mm 1 m/s 735 mmHg 90%
    21:00 +25°C° 0 mm 1 m/s 735 mmHg 90%
    22:00 +24°C° 0 mm 1 m/s 735 mmHg 91%
    23:00 +24°C° 0.1 mm 1 m/s 735 mmHg 92%

    Mâine, 25 August, Duminică

    Timp Temperatura Precipitaţii Vânt Presiune Umiditate
    00:00 +24°C° 0.1 mm 1 m/s 735 mmHg 92%
    01:00 +24°C° 0.1 mm 1 m/s 735 mmHg 93%
    02:00 +24°C° 1 mm 2 m/s 735 mmHg 93%
    03:00 +24°C° 1 mm 2 m/s 735 mmHg 94%
    04:00 +24°C° 1 mm 3 m/s 735 mmHg 95%
    05:00 +24°C° 0 mm 2 m/s 735 mmHg 95%
    06:00 +24°C° 0 mm 2 m/s 735 mmHg 95%
    07:00 +24°C° 0 mm 2 m/s 736 mmHg 94%
    08:00 +25°C° 0 mm 2 m/s 736 mmHg 91%
    09:00 +25°C° 0 mm 3 m/s 737 mmHg 87%
    10:00 +26°C° 0 mm 3 m/s 737 mmHg 84%
    11:00 +27°C° 0.3 mm 3 m/s 737 mmHg 82%
    12:00 +27°C° 0.3 mm 4 m/s 736 mmHg 80%
    13:00 +28°C° 0.3 mm 4 m/s 736 mmHg 79%
    14:00 +27°C° 0.5 mm 4 m/s 735 mmHg 79%
    15:00 +27°C° 0.5 mm 4 m/s 734 mmHg 80%
    16:00 +27°C° 0.5 mm 4 m/s 734 mmHg 81%
    17:00 +26°C° 0.2 mm 3 m/s 734 mmHg 84%
    18:00 +26°C° 0.2 mm 2 m/s 734 mmHg 87%
    19:00 +25°C° 0.2 mm 1 m/s 734 mmHg 89%
    20:00 +25°C° 0 mm 1 m/s 735 mmHg 90%
    21:00 +25°C° 0 mm 1 m/s 735 mmHg 90%
    22:00 +24°C° 0 mm 2 m/s 736 mmHg 91%
    23:00 +24°C° 0.1 mm 1 m/s 736 mmHg 92%

    Poimâine, 26 August, Luni

    Timp Temperatura Precipitaţii Vânt Presiune Umiditate
    00:00 +24°C° 0.1 mm 1 m/s 735 mmHg 93%
    01:00 +24°C° 0.1 mm 1 m/s 735 mmHg 93%
    02:00 +24°C° 0 mm 1 m/s 735 mmHg 93%
    03:00 +24°C° 0 mm 1 m/s 735 mmHg 93%
    04:00 +24°C° 0 mm 1 m/s 735 mmHg 93%
    05:00 +24°C° 0 mm 1 m/s 735 mmHg 92%
    06:00 +24°C° 0 mm 1 m/s 735 mmHg 92%
    07:00 +24°C° 0 mm 1 m/s 736 mmHg 91%
    08:00 +25°C° 0 mm 1 m/s 736 mmHg 88%
    09:00 +26°C° 0 mm 2 m/s 736 mmHg 85%
    10:00 +27°C° 0 mm 2 m/s 737 mmHg 82%
    11:00 +27°C° 0.6 mm 2 m/s 736 mmHg 80%
    12:00 +28°C° 0.6 mm 2 m/s 736 mmHg 79%
    13:00 +28°C° 0.6 mm 2 m/s 735 mmHg 77%
    14:00 +28°C° 1.6 mm 2 m/s 735 mmHg 79%
    15:00 +28°C° 1.6 mm 2 m/s 734 mmHg 80%
    16:00 +28°C° 1.6 mm 2 m/s 733 mmHg 82%
    17:00 +27°C° 0.3 mm 2 m/s 734 mmHg 85%
    18:00 +26°C° 0.3 mm 2 m/s 734 mmHg 88%
    19:00 +25°C° 0.3 mm 1 m/s 734 mmHg 90%
    20:00 +25°C° 0 mm 1 m/s 735 mmHg 91%
    21:00 +25°C° 0 mm 1 m/s 735 mmHg 92%
    22:00 +24°C° 0 mm 1 m/s 735 mmHg 94%
    23:00 +24°C° 0.1 mm 1 m/s 735 mmHg 94%

    27 August, Marţi

    Timp Temperatura Precipitaţii Vânt Presiune Umiditate
    00:00 +24°C° 0.1 mm 1 m/s 735 mmHg 94%
    01:00 +24°C° 0.1 mm 1 m/s 735 mmHg 94%
    02:00 +24°C° 0.1 mm 1 m/s 735 mmHg 93%
    03:00 +23°C° 0.1 mm 1 m/s 734 mmHg 93%
    04:00 +23°C° 0.1 mm 1 m/s 734 mmHg 93%
    05:00 +23°C° 0.2 mm 1 m/s 735 mmHg 92%
    06:00 +23°C° 0.2 mm 1 m/s 735 mmHg 92%
    07:00 +24°C° 0.2 mm 1 m/s 735 mmHg 92%
    08:00 +24°C° 0.4 mm 1 m/s 736 mmHg 91%
    09:00 +25°C° 0.4 mm 1 m/s 736 mmHg 89%
    10:00 +25°C° 0.4 mm 1 m/s 737 mmHg 88%
    11:00 +26°C° 0.2 mm 1 m/s 736 mmHg 86%
    12:00 +26°C° 0.2 mm 1 m/s 735 mmHg 85%
    13:00 +27°C° 0.2 mm 1 m/s 734 mmHg 83%
    14:00 +28°C° 0.3 mm 1 m/s 734 mmHg 80%
    15:00 +29°C° 0.3 mm 1 m/s 733 mmHg 76%
    16:00 +29°C° 0.3 mm 1 m/s 733 mmHg 72%
    17:00 +28°C° 0.2 mm 1 m/s 733 mmHg 77%
    18:00 +27°C° 0.2 mm 1 m/s 733 mmHg 81%
    19:00 +26°C° 0.2 mm 1 m/s 734 mmHg 86%
    20:00 +26°C° 0.2 mm 1 m/s 734 mmHg 86%
    21:00 +26°C° 0.2 mm 1 m/s 735 mmHg 87%
    22:00 +26°C° 0.2 mm 1 m/s 735 mmHg 87%
    23:00 +25°C° 0.1 mm 1 m/s 735 mmHg 88%

    28 August, Miercuri

    Timp Temperatura Precipitaţii Vânt Presiune Umiditate
    00:00 +25°C° 0.1 mm 1 m/s 735 mmHg 88%
    01:00 +25°C° 0.1 mm 1 m/s 734 mmHg 88%
    02:00 +25°C° 0 mm 1 m/s 734 mmHg 88%
    03:00 +25°C° 0 mm 1 m/s 734 mmHg 88%
    04:00 +25°C° 0 mm 1 m/s 734 mmHg 88%
    05:00 +25°C° 0 mm 1 m/s 735 mmHg 89%
    06:00 +25°C° 0 mm 2 m/s 735 mmHg 90%
    07:00 +25°C° 0 mm 2 m/s 735 mmHg 90%
    08:00 +26°C° 0.1 mm 2 m/s 736 mmHg 86%
    09:00 +27°C° 0.1 mm 3 m/s 736 mmHg 82%
    10:00 +28°C° 0.1 mm 3 m/s 736 mmHg 78%
    11:00 +29°C° 0.3 mm 3 m/s 736 mmHg 76%
    12:00 +29°C° 0.3 mm 4 m/s 735 mmHg 74%
    13:00 +30°C° 0.3 mm 4 m/s 735 mmHg 72%
    14:00 +30°C° 0.7 mm 3 m/s 734 mmHg 74%
    15:00 +29°C° 0.7 mm 3 m/s 734 mmHg 75%
    16:00 +29°C° 0.7 mm 2 m/s 734 mmHg 77%
    17:00 +28°C° 3.4 mm 2 m/s 734 mmHg 83%
    18:00 +27°C° 3.4 mm 2 m/s 734 mmHg 88%
    19:00 +25°C° 3.4 mm 1 m/s 734 mmHg 94%
    20:00 +25°C° 0.9 mm 1 m/s 735 mmHg 94%
    21:00 +25°C° 0.9 mm 1 m/s 735 mmHg 95%
    22:00 +24°C° 0.9 mm 1 m/s 736 mmHg 96%
    23:00 +24°C° 0 mm 1 m/s 736 mmHg 96%

    29 August, Joi

    Timp Temperatura Precipitaţii Vânt Presiune Umiditate
    00:00 +24°C° 0 mm 1 m/s 736 mmHg 96%
    01:00 +22°C° 0 mm 0 m/s 735 mmHg 96%
    02:00 +22°C° 0 mm 0 m/s 735 mmHg 96%
    03:00 +22°C° 0 mm 0 m/s 735 mmHg 96%
    04:00 +22°C° 0 mm 0 m/s 735 mmHg 96%
    05:00 +22°C° 0.1 mm 0 m/s 735 mmHg 94%
    06:00 +22°C° 0.1 mm 0 m/s 736 mmHg 93%
    07:00 +23°C° 0.1 mm 0 m/s 736 mmHg 92%
    08:00 +25°C° 0.4 mm 1 m/s 736 mmHg 89%
    09:00 +26°C° 0.4 mm 1 m/s 737 mmHg 87%
    10:00 +26°C° 0.4 mm 1 m/s 737 mmHg 84%
    11:00 +26°C° 0.9 mm 2 m/s 737 mmHg 84%
    12:00 +27°C° 0.9 mm 2 m/s 736 mmHg 84%
    13:00 +27°C° 0.9 mm 3 m/s 736 mmHg 83%
    14:00 +27°C° 0.5 mm 3 m/s 735 mmHg 83%
    15:00 +27°C° 0.5 mm 3 m/s 735 mmHg 83%
    16:00 +27°C° 0.5 mm 3 m/s 734 mmHg 83%
    17:00 +26°C° 0.1 mm 3 m/s 734 mmHg 86%
    18:00 +25°C° 0.1 mm 2 m/s 734 mmHg 89%
    19:00 +24°C° 0.1 mm 1 m/s 734 mmHg 92%
    20:00 +24°C° 0 mm 1 m/s 735 mmHg 93%
    21:00 +24°C° 0 mm 1 m/s 735 mmHg 94%
    22:00 +21°C° 0 mm 0 m/s 735 mmHg 95%
    23:00 +22°C° 0.1 mm 0 m/s 735 mmHg 94%
    Arată mai mult